| time (UTC) | temp C | wind direction | speed KPH | gust KPH | rain 1hr cm | rain 24hr cm | rain mn cm | humidity % | barometer mb |
| 20260507085447 | 11 | 357 | 0.0 | 0.0 | 0.00 | 0.00 | 0.00 | 87 | 1016.0 |
| 20260507084944 | 11 | 354 | 0.0 | 0.0 | 0.00 | 0.00 | 0.00 | 87 | 1015.9 |
| 20260507084441 | 12 | 352 | 0.0 | 0.0 | 0.00 | 0.00 | 0.00 | 88 | 1016.2 |
| 20260507083938 | 11 | 346 | 0.0 | 0.0 | 0.00 | 0.00 | 0.00 | 88 | 1016.1 |
| 20260507083434 | 11 | 339 | 0.0 | 0.0 | 0.00 | 0.00 | 0.00 | 89 | 1016.0 |
| 20260507082931 | 11 | 345 | 0.0 | 0.0 | 0.00 | 0.00 | 0.00 | 89 | 1016.2 |
| 20260507082427 | 11 | 351 | 0.0 | 0.0 | 0.00 | 0.00 | 0.00 | 89 | 1016.1 |
| 20260507081924 | 12 | 346 | 0.0 | 0.0 | 0.00 | 0.00 | 0.00 | 87 | 1016.3 |
| 20260507081420 | 12 | 344 | 0.0 | 1.6 | 0.00 | 0.00 | 0.00 | 88 | 1016.2 |
| 20260507080917 | 12 | 345 | 0.0 | 0.0 | 0.00 | 0.00 | 0.00 | 88 | 1016.1 |
| 20260507080413 | 12 | 357 | 0.0 | 0.0 | 0.00 | 0.00 | 0.00 | 88 | 1016.2 |
| 20260507075908 | 12 | 351 | 0.0 | 1.6 | 0.00 | 0.00 | 0.00 | 88 | 1016.5 |
| 20260507075404 | 12 | 6 | 0.0 | 1.6 | 0.00 | 0.00 | 0.00 | 88 | 1016.2 |
| 20260507074901 | 12 | 356 | 0.0 | 0.0 | 0.00 | 0.00 | 0.00 | 88 | 1016.2 |
| 20260507074358 | 12 | 309 | 0.0 | 1.6 | 0.00 | 0.00 | 0.00 | 87 | 1016.2 |
| 20260507073855 | 12 | 356 | 0.0 | 0.0 | 0.00 | 0.00 | 0.00 | 86 | 1016.3 |
| 20260507073352 | 12 | 358 | 0.0 | 0.0 | 0.00 | 0.00 | 0.00 | 84 | 1016.3 |
| 20260507072849 | 12 | 340 | 0.0 | 0.0 | 0.00 | 0.00 | 0.00 | 84 | 1016.5 |
| 20260507072346 | 12 | 310 | 0.0 | 1.6 | 0.00 | 0.00 | 0.00 | 86 | 1016.3 |
| 20260507071844 | 12 | 353 | 0.0 | 1.6 | 0.00 | 0.00 | 0.00 | 86 | 1016.2 |
| 20260507071341 | 12 | 17 | 1.6 | 1.6 | 0.00 | 0.00 | 0.00 | 86 | 1016.3 |
| 20260507070837 | 12 | 356 | 0.0 | 1.6 | 0.00 | 0.00 | 0.00 | 86 | 1016.5 |
| 20260507070335 | 12 | 19 | 0.0 | 1.6 | 0.00 | 0.00 | 0.00 | 86 | 1016.6 |
| 20260507065831 | 12 | 357 | 0.0 | 0.0 | 0.00 | 0.00 | 0.00 | 86 | 1016.4 |
| 20260507065328 | 12 | 344 | 0.0 | 0.0 | 0.00 | 0.00 | 0.00 | 86 | 1016.3 |
| 20260507064825 | 12 | 342 | 0.0 | 0.0 | 0.00 | 0.00 | 0.00 | 86 | 1016.5 |
| 20260507064324 | 12 | 9 | 1.6 | 1.6 | 0.00 | 0.00 | 0.00 | 85 | 1016.5 |
| 20260507063821 | 12 | 343 | 0.0 | 0.0 | 0.00 | 0.00 | 0.00 | 85 | 1016.6 |
| 20260507063318 | 12 | 337 | 0.0 | 0.0 | 0.00 | 0.00 | 0.00 | 85 | 1016.6 |
| 20260507062815 | 12 | 1 | 0.0 | 1.6 | 0.00 | 0.00 | 0.00 | 83 | 1016.8 |
| 20260507062312 | 13 | 334 | 0.0 | 1.6 | 0.00 | 0.00 | 0.00 | 83 | 1016.7 |
| 20260507061810 | 12 | 330 | 0.0 | 1.6 | 0.00 | 0.00 | 0.00 | 83 | 1016.6 |
| 20260507061307 | 13 | 357 | 0.0 | 0.0 | 0.00 | 0.00 | 0.00 | 82 | 1016.6 |
| 20260507060805 | 13 | 327 | 0.0 | 0.0 | 0.00 | 0.00 | 0.00 | 82 | 1016.6 |
| 20260507060302 | 13 | 352 | 0.0 | 0.0 | 0.00 | 0.00 | 0.00 | 82 | 1016.6 |
| 20260507055758 | 13 | 349 | 0.0 | 0.0 | 0.00 | 0.00 | 0.00 | 81 | 1016.6 |
| 20260507055254 | 13 | 351 | 0.0 | 0.0 | 0.00 | 0.00 | 0.00 | 80 | 1016.6 |
| 20260507054750 | 13 | 356 | 0.0 | 0.0 | 0.00 | 0.00 | 0.00 | 79 | 1016.6 |
| 20260507054247 | 14 | 346 | 0.0 | 0.0 | 0.00 | 0.00 | 0.00 | 78 | 1016.6 |
| 20260507053744 | 14 | 334 | 0.0 | 0.0 | 0.00 | 0.00 | 0.00 | 78 | 1016.7 |
| 20260507053242 | 14 | 334 | 0.0 | 0.0 | 0.00 | 0.00 | 0.00 | 78 | 1016.7 |
| 20260507052741 | 14 | 342 | 0.0 | 0.0 | 0.00 | 0.00 | 0.00 | 77 | 1016.5 |
| 20260507052236 | 15 | 240 | 3.2 | 3.2 | 0.00 | 0.00 | 0.00 | 76 | 1016.4 |
| 20260507051735 | 15 | 351 | 0.0 | 0.0 | 0.00 | 0.00 | 0.00 | 75 | 1016.5 |
| 20260507051231 | 15 | 288 | 3.2 | 3.2 | 0.00 | 0.00 | 0.00 | 75 | 1016.6 |
| 20260507050728 | 15 | 213 | 1.6 | 3.2 | 0.00 | 0.00 | 0.00 | 75 | 1016.4 |
| 20260507050225 | 15 | 237 | 3.2 | 3.2 | 0.00 | 0.00 | 0.00 | 75 | 1016.4 |
| 20260507045722 | 15 | 245 | 3.2 | 3.2 | 0.00 | 0.00 | 0.00 | 74 | 1016.2 |
| 20260507045218 | 15 | 186 | 3.2 | 3.2 | 0.00 | 0.00 | 0.00 | 74 | 1016.2 |
| 20260507044715 | 15 | 239 | 3.2 | 6.4 | 0.00 | 0.00 | 0.00 | 73 | 1016.4 |
| 20260507044212 | 15 | 224 | 4.8 | 6.4 | 0.00 | 0.00 | 0.00 | 73 | 1016.4 |
| 20260507043708 | 15 | 268 | 1.6 | 4.8 | 0.00 | 0.00 | 0.00 | 73 | 1016.3 |
| 20260507043205 | 15 | 235 | 4.8 | 4.8 | 0.00 | 0.00 | 0.00 | 73 | 1016.5 |
| 20260507042701 | 15 | 224 | 3.2 | 6.4 | 0.00 | 0.00 | 0.00 | 73 | 1016.4 |
| 20260507042156 | 15 | 255 | 3.2 | 6.4 | 0.00 | 0.00 | 0.00 | 73 | 1016.3 |
| 20260507041654 | 16 | 248 | 1.6 | 4.8 | 0.00 | 0.00 | 0.00 | 73 | 1016.4 |
| 20260507041150 | 16 | 5 | 1.6 | 4.8 | 0.00 | 0.00 | 0.00 | 72 | 1016.3 |
| 20260507040647 | 16 | 324 | 1.6 | 4.8 | 0.00 | 0.00 | 0.00 | 72 | 1016.3 |
| 20260507040143 | 16 | 196 | 3.2 | 4.8 | 0.00 | 0.00 | 0.00 | 72 | 1016.4 |
| 20260507035639 | 16 | 285 | 3.2 | 4.8 | 0.00 | 0.00 | 0.00 | 71 | 1016.1 |
| 20260507035135 | 16 | 2 | 1.6 | 6.4 | 0.00 | 0.00 | 0.00 | 70 | 1016.1 |
| 20260507034633 | 16 | 226 | 3.2 | 4.8 | 0.00 | 0.00 | 0.00 | 69 | 1016.0 |
| 20260507034130 | 16 | 184 | 4.8 | 6.4 | 0.00 | 0.00 | 0.00 | 69 | 1016.0 |
| 20260507033628 | 16 | 189 | 4.8 | 4.8 | 0.00 | 0.00 | 0.00 | 68 | 1015.8 |
| 20260507033125 | 16 | 233 | 1.6 | 4.8 | 0.00 | 0.00 | 0.00 | 68 | 1015.8 |
| 20260507032623 | 16 | 340 | 0.0 | 3.2 | 0.00 | 0.00 | 0.00 | 68 | 1015.9 |
| 20260507032118 | 17 | 230 | 4.8 | 11.3 | 0.00 | 0.00 | 0.00 | 67 | 1015.9 |
| 20260507031615 | 17 | 204 | 6.4 | 9.7 | 0.00 | 0.00 | 0.00 | 68 | 1015.9 |
| 20260507031112 | 17 | 220 | 3.2 | 4.8 | 0.00 | 0.00 | 0.00 | 71 | 1015.6 |
| 20260507030609 | 17 | 321 | 1.6 | 3.2 | 0.00 | 0.00 | 0.00 | 69 | 1015.8 |
| 20260507030107 | 17 | 345 | 0.0 | 1.6 | 0.00 | 0.00 | 0.00 | 68 | 1015.6 |
| 20260507025603 | 17 | 181 | 1.6 | 4.8 | 0.00 | 0.00 | 0.00 | 68 | 1015.7 |
| 20260507025100 | 17 | 168 | 0.0 | 4.8 | 0.00 | 0.00 | 0.00 | 67 | 1015.7 |
| 20260507024559 | 17 | 316 | 1.6 | 4.8 | 0.00 | 0.00 | 0.00 | 67 | 1015.6 |
| 20260507024055 | 17 | 10 | 0.0 | 4.8 | 0.00 | 0.00 | 0.00 | 66 | 1015.6 |
| 20260507023551 | 17 | 213 | 4.8 | 4.8 | 0.00 | 0.00 | 0.00 | 66 | 1015.4 |
| 20260507023048 | 17 | 287 | 1.6 | 6.4 | 0.00 | 0.00 | 0.00 | 66 | 1015.4 |
| 20260507022545 | 18 | 191 | 4.8 | 4.8 | 0.00 | 0.00 | 0.00 | 65 | 1015.0 |
| 20260507022040 | 18 | 3 | 0.0 | 4.8 | 0.00 | 0.00 | 0.00 | 65 | 1015.4 |
| 20260507021537 | 18 | 342 | 1.6 | 4.8 | 0.00 | 0.00 | 0.00 | 64 | 1015.3 |
| 20260507021033 | 18 | 130 | 3.2 | 6.4 | 0.00 | 0.00 | 0.00 | 64 | 1015.2 |
| 20260507020531 | 18 | 14 | 3.2 | 9.7 | 0.00 | 0.00 | 0.00 | 63 | 1015.1 |
| 20260507020027 | 18 | 19 | 3.2 | 6.4 | 0.00 | 0.00 | 0.00 | 62 | 1015.1 |
| 20260507015526 | 19 | 52 | 1.6 | 4.8 | 0.00 | 0.00 | 0.00 | 61 | 1015.2 |
| 20260507015023 | 19 | 352 | 0.0 | 9.7 | 0.00 | 0.00 | 0.00 | 61 | 1015.1 |
| 20260507014519 | 20 | 161 | 4.8 | 9.7 | 0.00 | 0.00 | 0.00 | 61 | 1015.1 |
| 20260507014015 | 20 | 22 | 1.6 | 4.8 | 0.00 | 0.00 | 0.00 | 60 | 1015.0 |
| 20260507013512 | 20 | 252 | 4.8 | 11.3 | 0.00 | 0.00 | 0.00 | 59 | 1015.0 |
| 20260507013009 | 20 | 183 | 6.4 | 6.4 | 0.00 | 0.00 | 0.00 | 58 | 1015.1 |
| 20260507012506 | 20 | 232 | 1.6 | 9.7 | 0.00 | 0.00 | 0.00 | 57 | 1015.0 |
| 20260507012003 | 21 | 337 | 1.6 | 11.3 | 0.00 | 0.00 | 0.00 | 56 | 1014.9 |
| 20260507011500 | 21 | 247 | 3.2 | 6.4 | 0.00 | 0.00 | 0.00 | 55 | 1014.9 |
| 20260507010955 | 21 | 346 | 3.2 | 12.9 | 0.00 | 0.00 | 0.00 | 54 | 1014.7 |
| 20260507010450 | 22 | 12 | 6.4 | 12.9 | 0.00 | 0.00 | 0.00 | 54 | 1014.7 |
| 20260507005947 | 22 | 9 | 4.8 | 9.7 | 0.00 | 0.00 | 0.00 | 52 | 1014.7 |
| 20260507005445 | 22 | 20 | 1.6 | 12.9 | 0.00 | 0.00 | 0.00 | 53 | 1014.7 |
| 20260507004941 | 21 | 150 | 6.4 | 6.4 | 0.00 | 0.00 | 0.00 | 52 | 1014.7 |
| 20260507004437 | 22 | 203 | 9.7 | 14.5 | 0.00 | 0.00 | 0.00 | 53 | 1014.7 |
| 20260507003935 | 22 | 22 | 3.2 | 12.9 | 0.00 | 0.00 | 0.00 | 51 | 1014.8 |
| 20260507003430 | 21 | 188 | 9.7 | 14.5 | 0.00 | 0.00 | 0.00 | 52 | 1014.8 |
| 20260507002926 | 22 | 201 | 6.4 | 20.9 | 0.00 | 0.00 | 0.00 | 51 | 1014.7 |
| 20260507002422 | 22 | 188 | 1.6 | 12.9 | 0.00 | 0.00 | 0.00 | 51 | 1014.7 |
| 20260507001919 | 22 | 307 | 6.4 | 11.3 | 0.00 | 0.00 | 0.00 | 50 | 1014.7 |
| 20260507001416 | 22 | 195 | 8.0 | 17.7 | 0.00 | 0.00 | 0.00 | 52 | 1014.8 |
| 20260507000914 | 22 | 144 | 4.8 | 12.9 | 0.00 | 0.00 | 0.00 | 50 | 1014.7 |
| 20260507000408 | 22 | 187 | 1.6 | 9.7 | 0.00 | 0.00 | 0.00 | 51 | 1014.7 |
| 20260506235905 | 22 | 206 | 8.0 | 11.3 | 0.00 | 0.00 | 0.00 | 50 | 1014.6 |
| 20260506235402 | 22 | 192 | 12.9 | 14.5 | 0.00 | 0.00 | 0.00 | 50 | 1014.7 |
| 20260506234857 | 22 | 109 | 3.2 | 11.3 | 0.00 | 0.00 | 0.00 | 52 | 1014.7 |
| 20260506234355 | 23 | 223 | 6.4 | 16.1 | 0.00 | 0.00 | 0.00 | 50 | 1014.5 |
| 20260506233853 | 22 | 151 | 3.2 | 14.5 | 0.00 | 0.00 | 0.00 | 51 | 1014.8 |
| 20260506233349 | 23 | 211 | 9.7 | 11.3 | 0.00 | 0.00 | 0.00 | 49 | 1014.8 |
| 20260506232846 | 23 | 99 | 1.6 | 12.9 | 0.00 | 0.00 | 0.00 | 49 | 1014.6 |
| 20260506232342 | 22 | 83 | 4.8 | 6.4 | 0.00 | 0.00 | 0.00 | 48 | 1014.9 |
| 20260506231838 | 23 | 213 | 3.2 | 16.1 | 0.00 | 0.00 | 0.00 | 48 | 1014.8 |
| 20260506231336 | 23 | 199 | 6.4 | 11.3 | 0.00 | 0.00 | 0.00 | 46 | 1014.7 |
| 20260506230833 | 23 | 18 | 3.2 | 16.1 | 0.00 | 0.00 | 0.00 | 48 | 1014.6 |
| 20260506230330 | 23 | 100 | 3.2 | 11.3 | 0.00 | 0.00 | 0.00 | 47 | 1014.7 |
| 20260506225826 | 23 | 180 | 6.4 | 9.7 | 0.00 | 0.00 | 0.00 | 45 | 1014.8 |
| 20260506225323 | 23 | 111 | 4.8 | 14.5 | 0.00 | 0.00 | 0.00 | 45 | 1014.8 |
| 20260506224820 | 23 | 198 | 6.4 | 14.5 | 0.00 | 0.00 | 0.00 | 45 | 1014.7 |
| 20260506224318 | 23 | 218 | 6.4 | 14.5 | 0.00 | 0.00 | 0.00 | 47 | 1014.9 |
| 20260506223814 | 24 | 193 | 3.2 | 11.3 | 0.00 | 0.00 | 0.00 | 45 | 1015.1 |
| 20260506223309 | 23 | 159 | 1.6 | 4.8 | 0.00 | 0.00 | 0.00 | 48 | 1015.1 |
| 20260506222806 | 23 | 222 | 3.2 | 4.8 | 0.00 | 0.00 | 0.00 | 47 | 1014.9 |
| 20260506222305 | 24 | 205 | 4.8 | 11.3 | 0.00 | 0.00 | 0.00 | 46 | 1015.0 |
| 20260506221800 | 23 | 193 | 8.0 | 14.5 | 0.00 | 0.00 | 0.00 | 47 | 1015.1 |
| 20260506221258 | 23 | 221 | 9.7 | 14.5 | 0.00 | 0.00 | 0.00 | 48 | 1015.2 |
| 20260506220755 | 23 | 273 | 3.2 | 14.5 | 0.00 | 0.00 | 0.00 | 47 | 1015.3 |
| 20260506220255 | 23 | 243 | 6.4 | 12.9 | 0.00 | 0.00 | 0.00 | 49 | 1015.4 |
| 20260506215752 | 23 | 253 | 1.6 | 4.8 | 0.00 | 0.00 | 0.00 | 48 | 1015.3 |
| 20260506215248 | 23 | 349 | 3.2 | 11.3 | 0.00 | 0.00 | 0.00 | 49 | 1015.3 |
| 20260506214744 | 23 | 231 | 4.8 | 12.9 | 0.00 | 0.00 | 0.00 | 48 | 1015.5 |
| 20260506214242 | 23 | 229 | 6.4 | 14.5 | 0.00 | 0.00 | 0.00 | 49 | 1015.5 |
| 20260506213740 | 23 | 192 | 12.9 | 16.1 | 0.00 | 0.00 | 0.00 | 48 | 1015.5 |
| 20260506213237 | 23 | 195 | 4.8 | 11.3 | 0.00 | 0.00 | 0.00 | 48 | 1015.6 |
| 20260506212734 | 23 | 70 | 3.2 | 14.5 | 0.00 | 0.00 | 0.00 | 48 | 1015.4 |
| 20260506212230 | 23 | 216 | 4.8 | 11.3 | 0.00 | 0.00 | 0.00 | 48 | 1015.6 |
| 20260506211725 | 23 | 160 | 6.4 | 9.7 | 0.00 | 0.00 | 0.00 | 49 | 1015.7 |
| 20260506211222 | 23 | 355 | 1.6 | 16.1 | 0.00 | 0.00 | 0.00 | 51 | 1015.8 |
| 20260506210719 | 23 | 349 | 4.8 | 9.7 | 0.00 | 0.00 | 0.00 | 50 | 1015.9 |
| 20260506210216 | 23 | 16 | 6.4 | 11.3 | 0.00 | 0.00 | 0.00 | 49 | 1015.7 |
| 20260506205713 | 23 | 190 | 9.7 | 12.9 | 0.00 | 0.00 | 0.00 | 49 | 1015.7 |
| 20260506205208 | 22 | 214 | 6.4 | 16.1 | 0.00 | 0.00 | 0.00 | 49 | 1015.8 |
| 20260506204705 | 22 | 339 | 3.2 | 12.9 | 0.00 | 0.00 | 0.00 | 50 | 1016.1 |
| 20260506204202 | 22 | 131 | 6.4 | 17.7 | 0.00 | 0.00 | 0.00 | 49 | 1015.9 |
| 20260506203700 | 22 | 235 | 1.6 | 9.7 | 0.00 | 0.00 | 0.00 | 47 | 1016.0 |
| 20260506203157 | 22 | 276 | 4.8 | 12.9 | 0.00 | 0.00 | 0.00 | 48 | 1016.0 |
| 20260506202655 | 22 | 358 | 3.2 | 12.9 | 0.00 | 0.00 | 0.00 | 47 | 1016.3 |
| 20260506202150 | 22 | 331 | 1.6 | 3.2 | 0.00 | 0.00 | 0.00 | 47 | 1016.3 |
| 20260506201648 | 22 | 58 | 1.6 | 9.7 | 0.00 | 0.00 | 0.00 | 48 | 1016.2 |
| 20260506201144 | 21 | 244 | 3.2 | 12.9 | 0.00 | 0.00 | 0.00 | 48 | 1016.4 |
| 20260506200641 | 21 | 63 | 3.2 | 14.5 | 0.00 | 0.00 | 0.00 | 49 | 1016.5 |
| 20260506200138 | 20 | 230 | 3.2 | 6.4 | 0.00 | 0.00 | 0.00 | 50 | 1016.6 |
| 20260506195635 | 21 | 232 | 1.6 | 12.9 | 0.00 | 0.00 | 0.00 | 49 | 1016.5 |
| 20260506195131 | 21 | 250 | 3.2 | 4.8 | 0.00 | 0.00 | 0.00 | 49 | 1016.7 |
| 20260506194629 | 21 | 300 | 3.2 | 11.3 | 0.00 | 0.00 | 0.00 | 49 | 1016.8 |
| 20260506194124 | 21 | 208 | 8.0 | 12.9 | 0.00 | 0.00 | 0.00 | 48 | 1016.8 |
| 20260506193623 | 21 | 325 | 1.6 | 12.9 | 0.00 | 0.00 | 0.00 | 48 | 1016.7 |
| 20260506193120 | 21 | 126 | 4.8 | 11.3 | 0.00 | 0.00 | 0.00 | 50 | 1016.7 |
| 20260506192616 | 21 | 352 | 3.2 | 11.3 | 0.00 | 0.00 | 0.00 | 50 | 1016.9 |
| 20260506192112 | 20 | 274 | 1.6 | 6.4 | 0.00 | 0.00 | 0.00 | 51 | 1016.8 |
| 20260506191609 | 21 | 144 | 3.2 | 14.5 | 0.00 | 0.00 | 0.00 | 50 | 1016.8 |
| 20260506191105 | 21 | 10 | 1.6 | 9.7 | 0.00 | 0.00 | 0.00 | 51 | 1017.0 |
| 20260506190603 | 21 | 44 | 6.4 | 12.9 | 0.00 | 0.00 | 0.00 | 51 | 1017.1 |
| 20260506190059 | 20 | 231 | 1.6 | 3.2 | 0.00 | 0.00 | 0.00 | 51 | 1017.4 |
| 20260506185556 | 20 | 75 | 1.6 | 3.2 | 0.00 | 0.00 | 0.00 | 50 | 1017.1 |
| 20260506185053 | 20 | 39 | 3.2 | 4.8 | 0.00 | 0.00 | 0.00 | 53 | 1017.3 |
| 20260506184550 | 20 | 38 | 1.6 | 3.2 | 0.00 | 0.00 | 0.00 | 52 | 1017.4 |
| 20260506184047 | 18 | 149 | 3.2 | 4.8 | 0.00 | 0.00 | 0.00 | 55 | 1017.4 |
| 20260506183543 | 19 | 234 | 6.4 | 11.3 | 0.00 | 0.00 | 0.00 | 55 | 1017.5 |
| 20260506183040 | 20 | 258 | 3.2 | 3.2 | 0.00 | 0.00 | 0.00 | 52 | 1017.6 |
| 20260506182537 | 19 | 57 | 1.6 | 6.4 | 0.00 | 0.00 | 0.00 | 54 | 1017.5 |
| 20260506182035 | 19 | 94 | 3.2 | 6.4 | 0.00 | 0.00 | 0.00 | 55 | 1017.4 |
| 20260506181533 | 20 | 158 | 1.6 | 6.4 | 0.00 | 0.00 | 0.00 | 52 | 1017.7 |
| 20260506181029 | 20 | 11 | 1.6 | 6.4 | 0.00 | 0.00 | 0.00 | 54 | 1017.4 |
| 20260506180525 | 20 | 202 | 3.2 | 4.8 | 0.00 | 0.00 | 0.00 | 54 | 1017.5 |
| 20260506180022 | 18 | 213 | 1.6 | 4.8 | 0.00 | 0.00 | 0.00 | 55 | 1017.5 |
| 20260506175519 | 18 | 222 | 4.8 | 6.4 | 0.00 | 0.00 | 0.00 | 55 | 1017.5 |
| 20260506175015 | 18 | 148 | 8.0 | 9.7 | 0.00 | 0.00 | 0.00 | 56 | 1017.5 |
| 20260506174514 | 17 | 328 | 1.6 | 6.4 | 0.00 | 0.00 | 0.00 | 59 | 1017.5 |
| 20260506174009 | 18 | 178 | 3.2 | 6.4 | 0.00 | 0.00 | 0.00 | 56 | 1017.7 |
| 20260506173508 | 18 | 71 | 0.0 | 3.2 | 0.00 | 0.00 | 0.00 | 56 | 1017.5 |
| 20260506173004 | 18 | 68 | 0.0 | 4.8 | 0.00 | 0.00 | 0.00 | 57 | 1017.5 |
| 20260506172502 | 17 | 230 | 4.8 | 4.8 | 0.00 | 0.00 | 0.00 | 58 | 1017.5 |
| 20260506171957 | 18 | 251 | 4.8 | 9.7 | 0.00 | 0.00 | 0.00 | 58 | 1017.5 |
| 20260506171455 | 18 | 38 | 1.6 | 6.4 | 0.00 | 0.00 | 0.00 | 57 | 1017.3 |
| 20260506170953 | 17 | 180 | 3.2 | 4.8 | 0.00 | 0.00 | 0.00 | 57 | 1017.6 |
| 20260506170449 | 17 | 239 | 1.6 | 3.2 | 0.00 | 0.00 | 0.00 | 59 | 1017.5 |
| 20260506165948 | 17 | 97 | 3.2 | 3.2 | 0.00 | 0.00 | 0.00 | 60 | 1017.6 |
| 20260506165446 | 17 | 264 | 1.6 | 6.4 | 0.00 | 0.00 | 0.00 | 59 | 1017.5 |
| 20260506164942 | 17 | 52 | 1.6 | 4.8 | 0.00 | 0.00 | 0.00 | 59 | 1017.5 |
| 20260506164439 | 17 | 93 | 1.6 | 6.4 | 0.00 | 0.00 | 0.00 | 60 | 1017.4 |
| 20260506163936 | 16 | 21 | 1.6 | 4.8 | 0.00 | 0.00 | 0.00 | 62 | 1017.6 |
| 20260506163431 | 16 | 243 | 1.6 | 3.2 | 0.00 | 0.00 | 0.00 | 64 | 1017.4 |
| 20260506162926 | 16 | 122 | 1.6 | 3.2 | 0.00 | 0.00 | 0.00 | 61 | 1017.5 |
| 20260506162424 | 17 | 14 | 0.0 | 1.6 | 0.00 | 0.00 | 0.00 | 61 | 1017.7 |
| 20260506161922 | 17 | 7 | 3.2 | 6.4 | 0.00 | 0.00 | 0.00 | 61 | 1017.7 |
| 20260506161420 | 17 | 16 | 1.6 | 3.2 | 0.00 | 0.00 | 0.00 | 62 | 1017.4 |
| 20260506160917 | 17 | 346 | 0.0 | 1.6 | 0.00 | 0.00 | 0.00 | 62 | 1017.6 |
| 20260506160414 | 16 | 195 | 1.6 | 4.8 | 0.00 | 0.00 | 0.00 | 64 | 1017.6 |
| 20260506155912 | 16 | 224 | 1.6 | 3.2 | 0.00 | 0.00 | 0.00 | 63 | 1017.4 |
| 20260506155409 | 16 | 359 | 0.0 | 3.2 | 0.00 | 0.00 | 0.00 | 64 | 1017.5 |
| 20260506153530 | 15 | 12 | 1.6 | 3.2 | 0.00 | 0.00 | 0.00 | 68 | 1017.5 |
| 20260506153028 | 15 | 121 | 1.6 | 1.6 | 0.00 | 0.00 | 0.00 | 70 | 1017.8 |
| 20260506152525 | 15 | 290 | 1.6 | 3.2 | 0.00 | 0.00 | 0.00 | 70 | 1017.7 |
| 20260506152023 | 15 | 356 | 0.0 | 3.2 | 0.00 | 0.00 | 0.00 | 72 | 1017.5 |
| 20260506151520 | 16 | 330 | 0.0 | 3.2 | 0.00 | 0.00 | 0.00 | 70 | 1017.6 |
| 20260506151018 | 16 | 8 | 0.0 | 1.6 | 0.00 | 0.00 | 0.00 | 72 | 1017.5 |
| 20260506150513 | 16 | 356 | 0.0 | 1.6 | 0.00 | 0.00 | 0.00 | 68 | 1017.6 |
| 20260506150011 | 16 | 30 | 1.6 | 1.6 | 0.00 | 0.00 | 0.00 | 69 | 1017.5 |
| 20260506145507 | 15 | 17 | 0.0 | 1.6 | 0.00 | 0.00 | 0.00 | 73 | 1017.5 |
| 20260506145005 | 14 | 7 | 0.0 | 1.6 | 0.00 | 0.00 | 0.00 | 79 | 1017.5 |
| 20260506144501 | 13 | 43 | 3.2 | 4.8 | 0.00 | 0.00 | 0.00 | 85 | 1017.4 |
| 20260506143959 | 13 | 43 | 3.2 | 4.8 | 0.00 | 0.00 | 0.00 | 85 | 1017.4 |
| 20260506143456 | 13 | 27 | 3.2 | 3.2 | 0.00 | 0.00 | 0.00 | 87 | 1017.4 |
| 20260506142955 | 12 | 48 | 3.2 | 4.8 | 0.00 | 0.00 | 0.00 | 86 | 1017.4 |
| 20260506142452 | 12 | 24 | 1.6 | 3.2 | 0.00 | 0.00 | 0.00 | 86 | 1017.3 |
| 20260506141949 | 12 | 40 | 1.6 | 1.6 | 0.00 | 0.00 | 0.00 | 85 | 1017.4 |
| 20260506141447 | 12 | 33 | 1.6 | 1.6 | 0.00 | 0.00 | 0.00 | 86 | 1017.1 |
| 20260506140946 | 12 | 359 | 0.0 | 0.0 | 0.00 | 0.00 | 0.00 | 93 | 1017.1 |
| 20260506140442 | 12 | 30 | 1.6 | 1.6 | 0.00 | 0.00 | 0.00 | 93 | 1017.1 |
| 20260506135939 | 11 | 357 | 0.0 | 0.0 | 0.00 | 0.00 | 0.00 | 96 | 1017.3 |
| 20260506135437 | 11 | 318 | 0.0 | 0.0 | 0.00 | 0.00 | 0.00 | 96 | 1017.3 |
| 20260506134932 | 11 | 351 | 0.0 | 0.0 | 0.00 | 0.00 | 0.00 | 97 | 1017.4 |
| 20260506134429 | 10 | 350 | 0.0 | 0.0 | 0.00 | 0.00 | 0.00 | 97 | 1017.1 |
| 20260506133926 | 10 | 0 | 0.0 | 0.0 | 0.00 | 0.00 | 0.00 | 97 | 1017.3 |
| 20260506133423 | 10 | 358 | 0.0 | 1.6 | 0.00 | 0.00 | 0.00 | 97 | 1017.0 |
| 20260506132919 | 10 | 1 | 0.0 | 1.6 | 0.00 | 0.00 | 0.00 | 97 | 1016.9 |
| 20260506132416 | 9 | 354 | 0.0 | 1.6 | 0.00 | 0.00 | 0.00 | 97 | 1017.0 |
| 20260506131914 | 9 | 21 | 1.6 | 1.6 | 0.00 | 0.00 | 0.00 | 97 | 1016.9 |
| 20260506131410 | 9 | 333 | 0.0 | 0.0 | 0.00 | 0.00 | 0.00 | 97 | 1016.8 |
| 20260506130907 | 9 | 36 | 0.0 | 1.6 | 0.00 | 0.00 | 0.00 | 97 | 1016.7 |
| 20260506130403 | 9 | 46 | 0.0 | 1.6 | 0.00 | 0.00 | 0.00 | 97 | 1016.7 |
| 20260506125902 | 9 | 24 | 1.6 | 1.6 | 0.00 | 0.00 | 0.00 | 97 | 1016.6 |
| 20260506125400 | 9 | 11 | 0.0 | 1.6 | 0.00 | 0.00 | 0.00 | 97 | 1016.5 |
| 20260506124858 | 9 | 7 | 0.0 | 1.6 | 0.00 | 0.00 | 0.00 | 97 | 1016.7 |
| 20260506124354 | 9 | 12 | 0.0 | 1.6 | 0.00 | 0.00 | 0.00 | 97 | 1016.5 |
| 20260506123853 | 9 | 346 | 0.0 | 0.0 | 0.00 | 0.00 | 0.00 | 97 | 1016.6 |
| 20260506123351 | 9 | 7 | 0.0 | 1.6 | 0.00 | 0.00 | 0.00 | 97 | 1016.6 |
| 20260506122848 | 9 | 17 | 0.0 | 1.6 | 0.00 | 0.00 | 0.00 | 97 | 1016.3 |
| 20260506122344 | 10 | 22 | 1.6 | 1.6 | 0.00 | 0.00 | 0.00 | 97 | 1016.4 |
| 20260506121843 | 9 | 19 | 0.0 | 1.6 | 0.00 | 0.00 | 0.00 | 97 | 1016.3 |
| 20260506121339 | 10 | 349 | 0.0 | 0.0 | 0.00 | 0.00 | 0.00 | 97 | 1016.4 |
| 20260506120836 | 10 | 353 | 0.0 | 0.0 | 0.00 | 0.00 | 0.00 | 97 | 1016.1 |
| 20260506120334 | 10 | 353 | 0.0 | 0.0 | 0.00 | 0.00 | 0.00 | 97 | 1016.3 |
| 20260506115831 | 10 | 346 | 0.0 | 0.0 | 0.00 | 0.00 | 0.00 | 97 | 1016.3 |
| 20260506115329 | 10 | 350 | 0.0 | 0.0 | 0.00 | 0.00 | 0.00 | 97 | 1016.2 |
| 20260506114827 | 10 | 351 | 0.0 | 0.0 | 0.00 | 0.00 | 0.00 | 97 | 1016.4 |
| 20260506114325 | 10 | 359 | 0.0 | 0.0 | 0.00 | 0.00 | 0.00 | 97 | 1016.4 |
| 20260506113823 | 9 | 358 | 0.0 | 0.0 | 0.00 | 0.00 | 0.00 | 97 | 1016.3 |
| 20260506113320 | 9 | 352 | 0.0 | 0.0 | 0.00 | 0.00 | 0.00 | 97 | 1016.4 |
| 20260506112817 | 10 | 354 | 0.0 | 0.0 | 0.00 | 0.00 | 0.00 | 97 | 1016.4 |
| 20260506112314 | 10 | 351 | 0.0 | 0.0 | 0.00 | 0.00 | 0.00 | 97 | 1016.0 |
| 20260506111811 | 9 | 350 | 0.0 | 0.0 | 0.00 | 0.00 | 0.00 | 97 | 1016.1 |
| 20260506111309 | 10 | 0 | 0.0 | 0.0 | 0.00 | 0.00 | 0.00 | 97 | 1016.0 |
| 20260506110807 | 10 | 358 | 0.0 | 0.0 | 0.00 | 0.00 | 0.00 | 97 | 1016.1 |
| 20260506110303 | 10 | 356 | 0.0 | 0.0 | 0.00 | 0.00 | 0.00 | 97 | 1016.1 |
| 20260506105800 | 10 | 4 | 0.0 | 0.0 | 0.00 | 0.00 | 0.00 | 97 | 1016.2 |
| 20260506105257 | 10 | 354 | 0.0 | 0.0 | 0.00 | 0.00 | 0.00 | 97 | 1016.3 |
| 20260506104755 | 10 | 357 | 0.0 | 1.6 | 0.00 | 0.00 | 0.00 | 97 | 1016.1 |
| 20260506104252 | 10 | 359 | 0.0 | 0.0 | 0.00 | 0.00 | 0.00 | 96 | 1016.4 |
| 20260506103749 | 10 | 348 | 0.0 | 0.0 | 0.00 | 0.00 | 0.00 | 96 | 1016.2 |
| 20260506103247 | 10 | 355 | 0.0 | 0.0 | 0.00 | 0.00 | 0.00 | 96 | 1016.3 |
| 20260506102744 | 10 | 355 | 0.0 | 0.0 | 0.00 | 0.00 | 0.00 | 96 | 1016.1 |
| 20260506102242 | 10 | 353 | 0.0 | 0.0 | 0.00 | 0.00 | 0.00 | 96 | 1016.4 |
| 20260506101739 | 10 | 359 | 0.0 | 0.0 | 0.00 | 0.00 | 0.00 | 96 | 1016.4 |
| 20260506101235 | 10 | 356 | 0.0 | 1.6 | 0.00 | 0.00 | 0.00 | 96 | 1016.3 |
| 20260506100733 | 10 | 356 | 0.0 | 1.6 | 0.00 | 0.00 | 0.00 | 96 | 1016.1 |
| 20260506100231 | 10 | 342 | 0.0 | 0.0 | 0.00 | 0.00 | 0.00 | 96 | 1016.4 |
| 20260506095729 | 10 | 0 | 0.0 | 1.6 | 0.00 | 0.00 | 0.00 | 96 | 1016.3 |
| 20260506095226 | 10 | 355 | 0.0 | 0.0 | 0.00 | 0.00 | 0.00 | 96 | 1016.2 |
| 20260506094723 | 10 | 353 | 0.0 | 0.0 | 0.00 | 0.00 | 0.00 | 96 | 1016.3 |
| 20260506094221 | 10 | 353 | 0.0 | 0.0 | 0.00 | 0.00 | 0.00 | 96 | 1016.3 |
| 20260506093720 | 10 | 350 | 0.0 | 0.0 | 0.00 | 0.00 | 0.00 | 96 | 1016.4 |
| 20260506093216 | 10 | 356 | 0.0 | 0.0 | 0.00 | 0.00 | 0.00 | 96 | 1016.5 |
| 20260506092714 | 10 | 349 | 0.0 | 0.0 | 0.00 | 0.00 | 0.00 | 96 | 1016.5 |
| 20260506092211 | 10 | 6 | 0.0 | 1.6 | 0.00 | 0.00 | 0.00 | 96 | 1016.4 |
| 20260506091709 | 10 | 357 | 0.0 | 0.0 | 0.00 | 0.00 | 0.00 | 96 | 1016.3 |
| 20260506091206 | 10 | 23 | 0.0 | 1.6 | 0.00 | 0.00 | 0.00 | 96 | 1016.4 |
| 20260506090704 | 10 | 359 | 0.0 | 0.0 | 0.00 | 0.00 | 0.00 | 96 | 1016.4 |
| 20260506090200 | 10 | 348 | 0.0 | 0.0 | 0.00 | 0.00 | 0.00 | 96 | 1016.4 |